Temp
40 41 41 42 43 43 44 45 47 47 47 47 47 47 47 47 47 48 48 49 49 49 49 50 50 50 50 51 51 51 50 50 50 51 51 51 51 51 51 52 52 52 52 52 52 52 53 53 54 55 56 56 56 56 56 56 55 56 56 56 56 56 55 55 54 54 54 54 54
39 40 40 41 42 42 43 44 45 46 46 46 46 47 47 47 47 47 48 48 48 49 49 49 49 49 50 50 51 50 50 50 50 50 50 51 51 51 51 51 52 52 52 52 52 52 53 53 53 54 55 56 56 56 56 56 55 55 55 55 56 56 56 56 55 55 55 55 55
38 39 39 39 40 40 41 42 43 44 45 45 46 46 46 47 47 47 47 48 48 48 48 49 49 49 49 50 50 50 50 50 50 50 50 50 50 50 50 50 51 51 51 52 52 53 53 53 53 54 55 55 55 55 55 56 56 56 55 55 56 56 56 56 56 56 56 56 55
37 38 38 38 38 39 39 40 42 43 44 44 44 45 45 46 46 46 47 47 48 48 48 48 48 48 49 49 49 49 49 49 49 49 49 50 49 49 49 49 50 50 50 51 51 51 52 52 54 54 54 54 54 54 55 56 56 56 56 56 56 56 56 56 56 56 57 57 56
37 37 37 38 38 38 39 40 41 42 43 43 43 43 44 45 45 45 46 46 46 47 47 47 47 47 48 49 49 49 48 48 49 49 49 49 49 49 49 49 49 49 49 49 50 50 51 52 53 54 54 53 54 54 55 55 55 55 56 57 57 57 56 56 56 56 56 56 56
36 37 37 37 38 38 39 39 40 41 41 41 41 41 42 43 43 43 44 45 45 46 46 47 47 47 48 48 48 48 48 48 48 48 48 48 48 48 48 48 48 48 48 48 48 49 49 51 53 54 54 54 55 55 55 54 55 55 55 56 57 57 57 56 56 56 56 56 55
36 36 36 37 37 37 38 38 40 40 40 40 39 39 40 41 41 41 42 43 44 45 45 45 45 45 46 47 47 47 47 47 47 47 47 48 48 47 47 47 47 47 47 47 48 48 49 50 51 52 52 53 53 53 53 52 52 52 53 53 55 56 56 55 56 56 55 55 54
35 36 36 36 37 37 37 38 39 39 39 39 38 38 39 40 40 40 41 42 43 43 44 44 43 44 44 46 46 46 46 47 47 47 47 47 47 47 46 46 46 46 47 47 47 48 48 49 49 49 49 49 50 50 50 49 49 49 49 50 52 53 53 54 54 54 54 54 53
35 35 36 36 36 37 37 37 38 38 38 37 37 38 39 39 39 40 40 41 42 42 42 42 42 43 43 45 45 45 46 46 46 46 46 46 46 46 46 46 45 45 46 46 47 47 47 48 48 47 47 47 47 47 47 47 47 47 47 48 49 49 50 51 51 51 52 52 52
35 35 35 36 36 37 37 37 38 38 37 37 37 38 38 39 39 39 39 40 41 41 41 41 41 41 42 43 44 44 45 45 45 45 45 45 45 45 45 45 45 45 45 45 46 46 47 47 47 47 47 47 47 47 47 47 47 46 46 47 47 47 47 48 48 48 49 49 49
35 35 35 35 36 36 36 36 37 37 37 37 37 37 38 38 38 39 39 39 40 40 39 39 40 40 41 42 42 43 44 45 45 45 44 44 45 45 45 45 45 44 44 45 45 45 46 46 46 46 46 46 46 46 46 46 46 46 46 46 46 46 46 46 47 47 47 47 47
35 35 35 35 35 36 36 36 36 36 36 36 36 36 37 37 38 38 39 39 39 39 39 38 38 39 40 41 41 42 43 44 44 44 43 43 43 44 44 44 44 44 44 44 44 44 44 44 45 45 45 45 45 45 46 46 46 46 46 46 46 46 46 46 46 46 46 46 46
35 35 35 35 35 35 35 35 35 35 35 35 35 36 36 37 38 38 38 38 38 38 38 37 38 38 39 39 40 41 42 43 43 43 42 42 42 42 43 43 43 43 43 43 44 44 44 44 44 44 44 44 44 45 45 45 45 45 45 45 45 45 45 45 45 46 46 46 46
35 35 35 35 35 35 35 34 35 35 35 35 35 35 36 36 37 38 38 38 38 38 37 36 37 37 38 38 39 40 41 42 42 42 41 41 41 41 42 42 42 42 42 42 43 43 43 43 43 43 43 43 44 44 44 44 44 44 44 44 44 44 44 44 45 45 45 45 45
34 34 35 35 35 34 34 34 34 34 35 35 35 35 35 36 37 37 37 37 37 37 37 35 36 37 37 38 38 39 41 41 41 41 40 40 40 40 41 41 41 41 41 41 42 42 43 43 43 43 43 43 43 43 44 44 44 44 44 43 43 43 43 44 44 44 44 44 44
34 34 34 34 34 34 34 34 34 34 34 35 35 35 35 35 36 36 37 37 37 36 35 35 35 35 36 37 38 39 40 40 40 40 40 39 39 40 40 40 40 40 40 40 41 41 42 42 42 42 42 42 43 43 43 44 44 44 43 43 43 43 43 43 44 44 43 43 43
33 34 34 34 34 34 34 34 34 34 34 34 35 35 35 35 35 36 36 36 36 35 34 34 34 35 35 36 37 38 39 39 39 39 39 39 39 39 39 40 40 40 40 40 40 40 41 42 42 42 42 42 42 43 43 43 43 43 43 43 43 43 43 43 43 43 43 43 43
33 33 33 33 33 33 33 33 34 34 34 34 34 35 35 35 35 35 35 36 35 34 33 33 34 34 34 35 35 37 39 38 39 39 39 39 39 39 39 39 39 39 39 39 39 40 40 41 41 41 42 42 42 42 43 43 43 43 42 42 42 42 43 43 43 43 43 43 43
32 32 33 32 32 31 31 32 33 33 34 34 34 34 34 34 34 34 34 34 34 33 33 33 33 33 34 34 34 36 37 38 38 38 38 38 39 39 39 39 39 39 39 39 39 39 40 40 40 41 41 41 42 42 42 42 42 42 42 42 42 42 42 42 43 43 43 43 43
32 32 31 31 30 30 30 31 31 32 32 32 32 32 32 32 33 32 32 32 33 33 33 32 33 33 33 33 34 34 35 37 36 36 37 38 38 38 38 38 38 38 38 39 39 39 39 40 40 40 41 41 41 41 41 41 41 41 41 41 41 41 42 42 42 43 43 43 42
31 31 30 30 29 29 30 30 30 30 31 31 31 31 31 31 31 31 31 32 32 32 32 32 32 32 33 33 33 33 34 36 35 35 35 36 37 37 37 37 37 37 37 37 38 39 39 39 40 40 41 41 41 41 41 41 40 40 40 40 41 41 41 42 42 42 42 42 42
30 30 29 29 29 30 30 30 30 30 30 30 30 30 30 30 30 31 31 32 32 32 32 32 32 32 32 33 33 33 33 34 34 34 34 35 36 36 36 36 37 37 37 37 37 38 39 39 40 40 40 40 40 40 40 40 40 40 40 40 40 41 41 42 42 42 42 42 42
30 29 29 29 29 30 30 30 30 29 29 29 30 30 30 30 30 31 31 31 32 32 31 32 32 32 32 32 33 33 33 33 33 33 34 34 35 35 36 36 36 36 36 36 37 37 38 39 39 40 40 40 40 40 40 40 39 39 39 39 40 40 40 41 41 41 41 41 41
29 29 29 29 29 29 29 29 29 29 29 29 29 30 30 30 30 30 31 31 31 31 31 31 32 32 32 33 33 32 32 32 32 32 33 34 35 35 35 35 35 35 36 36 37 38 39 39 39 39 39 40 39 39 39 39 39 39 39 39 39 39 40 40 41 41 41 41 41
28 28 29 29 29 29 29 29 29 29 29 29 29 29 30 30 30 30 30 30 30 31 31 31 31 32 32 32 32 32 32 32 32 32 33 34 35 35 35 34 35 35 36 36 39 40 42 42 41 40 40 39 39 39 39 39 39 39 38 38 38 39 39 39 39 40 40 40 40
28 28 28 28 29 29 29 28 28 29 29 29 29 29 29 30 30 30 30 30 30 30 31 31 31 32 33 32 32 31 31 32 32 32 33 33 34 34 35 35 35 35 36 37 39 41 42 43 43 42 41 39 39 39 38 38 38 38 38 38 38 38 38 38 38 39 39 39 39
27 27 27 28 28 28 28 28 28 29 29 29 29 29 29 30 30 29 29 29 29 30 30 31 31 32 33 32 31 31 31 32 32 32 33 33 33 33 34 34 34 35 36 38 40 41 42 43 43 43 42 39 39 38 38 38 38 38 38 38 38 38 38 38 38 38 38 39 39
26 26 27 27 27 27 28 28 28 28 28 28 29 29 29 29 29 29 29 29 29 29 30 30 31 32 32 31 31 31 31 31 31 32 33 33 33 33 33 34 34 35 36 38 40 41 42 42 43 43 42 41 39 38 38 38 38 37 37 37 38 38 38 38 38 38 38 38 38
25 26 26 26 26 27 27 27 27 27 28 28 29 29 29 29 29 28 28 28 28 29 29 30 31 31 31 31 30 31 31 32 32 33 33 33 33 33 33 33 34 35 36 39 40 41 41 42 42 42 42 42 40 39 38 37 37 37 37 37 37 37 38 38 38 38 38 37 37
25 25 25 25 26 26 26 27 27 27 28 28 28 28 28 28 28 28 27 27 28 28 29 30 31 31 31 30 31 31 31 31 32 33 33 32 32 32 33 33 32 33 35 38 40 41 41 42 42 42 42 42 40 39 38 37 37 37 37 37 37 37 37 37 37 37 37 37 37
25 25 25 25 25 25 26 26 27 27 27 27 27 27 27 27 27 27 27 27 28 29 30 30 29 30 30 31 32 32 32 32 33 33 32 32 32 32 32 31 31 32 35 38 40 40 41 41 41 42 42 42 40 39 38 37 37 37 37 37 37 37 37 37 37 37 37 37 36
24 24 24 24 25 25 25 26 26 26 26 26 26 26 26 26 26 26 27 27 28 28 28 28 28 28 29 31 31 32 33 32 32 32 32 32 32 31 31 30 30 32 35 39 40 40 41 41 41 41 42 42 40 39 37 37 37 37 37 37 37 37 37 37 37 37 37 36 36
24 24 24 24 24 25 25 25 26 26 26 25 25 25 26 26 26 26 26 27 27 27 27 27 27 28 29 31 31 32 32 32 32 32 32 32 32 31 30 30 30 32 36 39 39 40 40 41 41 41 42 42 40 38 37 37 37 37 37 37 37 37 37 37 37 37 36 36 36
23 23 23 23 24 24 25 25 25 25 25 25 25 25 25 25 25 25 26 27 27 27 26 27 27 27 28 30 31 31 31 32 32 32 31 31 30 30 29 30 30 33 36 39 39 40 40 40 41 41 41 42 39 38 37 37 37 37 37 37 37 37 37 37 36 36 36 36 36
23 23 23 23 23 24 24 24 24 24 24 24 25 25 25 25 25 25 26 28 28 27 26 26 27 27 28 29 30 31 31 31 30 30 30 29 29 29 29 29 30 33 37 38 39 39 40 40 41 41 41 40 38 37 37 36 36 36 36 36 36 36 36 36 36 36 36 36 36
22 22 22 23 23 23 23 24 24 24 24 24 24 24 25 25 25 25 27 28 28 27 26 26 27 27 27 28 30 30 30 29 29 29 29 29 29 29 29 29 30 33 36 38 38 39 39 40 40 41 40 39 37 37 36 36 36 36 36 36 36 36 36 36 36 36 36 36 36
23 23 23 23 23 23 23 23 23 23 23 24 24 24 24 24 25 25 26 28 26 26 25 26 26 26 27 28 29 29 28 28 28 28 28 29 29 28 29 29 30 32 34 37 38 39 39 40 40 40 40 38 37 36 36 36 35 35 35 35 35 35 36 36 36 36 35 35 36
23 23 23 23 23 23 23 23 23 23 23 23 24 24 24 24 25 25 26 28 26 25 25 25 26 26 27 28 28 28 28 28 29 29 28 28 28 29 29 29 29 31 33 36 38 38 39 40 40 40 39 37 36 35 35 35 35 35 35 35 35 35 35 35 36 36 35 35 36
23 23 23 23 23 23 23 23 23 23 23 24 24 24 24 25 25 26 26 27 25 25 25 25 25 26 27 29 29 28 28 28 29 29 29 28 29 30 31 30 29 30 32 36 37 38 39 39 40 40 40 38 36 35 35 34 34 34 34 34 34 34 35 35 35 35 35 35 37
23 23 23 22 23 23 23 22 23 23 24 24 24 24 24 25 25 26 26 26 25 25 25 25 26 27 28 30 29 28 28 28 29 29 29 29 29 31 32 30 29 30 32 35 37 38 39 39 39 40 39 37 36 35 35 34 34 33 33 34 34 34 34 35 35 35 35 35 36
22 22 22 22 23 23 22 22 22 23 24 24 24 24 25 26 26 25 25 25 25 25 25 26 26 27 29 30 29 28 27 28 29 29 29 29 30 31 31 29 29 29 30 33 36 38 38 39 39 40 39 38 36 35 34 34 33 33 33 33 33 33 33 34 34 34 34 35 35
MSLP
1019.96 1019.74 1019.52 1019.30 1019.12 1018.90 1018.60 1018.36 1018.12 1017.92 1017.80 1017.60 1017.42 1017.26 1017.12 1016.92 1016.76 1016.58 1016.42 1016.26 1016.14 1016.02 1015.90 1015.74 1015.64 1015.48 1015.32 1015.12 1014.90 1014.70 1014.54 1014.36 1014.20 1014.02 1013.86 1013.70 1013.54 1013.40 1013.24 1013.04 1012.90 1012.76 1012.64 1012.48 1012.36 1012.24 1012.12 1012.02 1011.96 1011.86 1011.76 1011.70 1011.60 1011.52 1011.46 1011.40 1011.36 1011.32 1011.26 1011.24 1011.14 1011.08 1011.04 1011.02 1010.96 1010.92 1010.90 1010.86 1010.86
1020.18 1019.98 1019.82 1019.64 1019.46 1019.24 1018.96 1018.68 1018.36 1018.14 1018.02 1017.82 1017.68 1017.48 1017.30 1017.14 1016.96 1016.76 1016.60 1016.48 1016.36 1016.24 1016.08 1015.90 1015.76 1015.60 1015.42 1015.18 1015.02 1014.82 1014.68 1014.52 1014.32 1014.14 1013.96 1013.80 1013.68 1013.52 1013.36 1013.20 1013.02 1012.86 1012.70 1012.54 1012.40 1012.30 1012.18 1012.02 1011.96 1011.86 1011.76 1011.68 1011.58 1011.48 1011.40 1011.30 1011.30 1011.26 1011.20 1011.12 1011.04 1010.98 1010.92 1010.86 1010.74 1010.68 1010.64 1010.64 1010.58
1020.42 1020.24 1020.04 1019.90 1019.74 1019.52 1019.24 1018.92 1018.68 1018.46 1018.30 1018.12 1017.96 1017.74 1017.52 1017.32 1017.14 1016.98 1016.80 1016.64 1016.52 1016.40 1016.20 1016.04 1015.92 1015.74 1015.52 1015.30 1015.14 1014.98 1014.82 1014.68 1014.46 1014.26 1014.08 1013.92 1013.76 1013.68 1013.54 1013.40 1013.20 1013.02 1012.86 1012.70 1012.54 1012.40 1012.24 1012.08 1011.96 1011.82 1011.70 1011.60 1011.52 1011.46 1011.32 1011.20 1011.18 1011.14 1011.08 1010.98 1010.92 1010.86 1010.80 1010.68 1010.54 1010.48 1010.46 1010.40 1010.36
1020.64 1020.46 1020.30 1020.18 1020.02 1019.82 1019.58 1019.36 1019.02 1018.76 1018.58 1018.42 1018.26 1018.02 1017.76 1017.58 1017.42 1017.24 1017.02 1016.80 1016.68 1016.52 1016.36 1016.20 1016.04 1015.86 1015.68 1015.42 1015.30 1015.14 1014.98 1014.80 1014.60 1014.42 1014.24 1014.08 1013.96 1013.80 1013.68 1013.52 1013.36 1013.20 1013.04 1012.90 1012.74 1012.54 1012.36 1012.12 1011.92 1011.74 1011.64 1011.54 1011.48 1011.42 1011.30 1011.18 1011.08 1010.98 1010.92 1010.80 1010.74 1010.70 1010.60 1010.48 1010.40 1010.30 1010.24 1010.18 1010.12
1020.80 1020.70 1020.60 1020.48 1020.32 1020.12 1019.90 1019.68 1019.36 1019.08 1018.90 1018.74 1018.54 1018.32 1018.08 1017.82 1017.70 1017.52 1017.24 1016.98 1016.82 1016.70 1016.58 1016.40 1016.20 1016.02 1015.80 1015.60 1015.46 1015.30 1015.12 1014.92 1014.76 1014.58 1014.40 1014.20 1014.08 1013.96 1013.82 1013.64 1013.54 1013.40 1013.24 1013.08 1012.92 1012.74 1012.52 1012.20 1011.92 1011.74 1011.58 1011.52 1011.42 1011.36 1011.26 1011.14 1011.04 1010.92 1010.80 1010.64 1010.54 1010.46 1010.40 1010.30 1010.20 1010.12 1010.04 1009.98 1009.86
1021.12 1021.02 1020.92 1020.80 1020.60 1020.40 1020.18 1019.96 1019.64 1019.40 1019.24 1019.08 1018.90 1018.68 1018.42 1018.18 1018.02 1017.80 1017.54 1017.26 1017.04 1016.90 1016.74 1016.58 1016.42 1016.18 1015.92 1015.74 1015.54 1015.40 1015.24 1015.08 1014.90 1014.74 1014.58 1014.42 1014.24 1014.12 1013.96 1013.80 1013.68 1013.52 1013.36 1013.24 1013.04 1012.86 1012.68 1012.40 1012.04 1011.80 1011.68 1011.60 1011.48 1011.40 1011.36 1011.32 1011.18 1011.02 1010.86 1010.68 1010.48 1010.36 1010.26 1010.18 1010.04 1009.92 1009.86 1009.80 1009.70
1021.46 1021.32 1021.14 1021.02 1020.82 1020.64 1020.42 1020.18 1019.90 1019.68 1019.52 1019.32 1019.18 1018.96 1018.70 1018.48 1018.32 1018.12 1017.82 1017.60 1017.36 1017.12 1016.92 1016.80 1016.64 1016.40 1016.12 1015.86 1015.68 1015.52 1015.32 1015.20 1015.04 1014.90 1014.74 1014.58 1014.40 1014.26 1014.12 1013.96 1013.80 1013.60 1013.46 1013.30 1013.12 1012.92 1012.76 1012.58 1012.32 1012.14 1012.02 1011.96 1011.82 1011.74 1011.70 1011.68 1011.54 1011.36 1011.14 1010.92 1010.74 1010.58 1010.42 1010.26 1010.12 1010.02 1009.90 1009.76 1009.64
1021.70 1021.54 1021.36 1021.20 1021.02 1020.82 1020.64 1020.40 1020.14 1019.92 1019.80 1019.60 1019.46 1019.20 1018.98 1018.74 1018.54 1018.32 1018.08 1017.82 1017.60 1017.40 1017.24 1017.04 1016.90 1016.68 1016.36 1016.04 1015.82 1015.64 1015.46 1015.32 1015.18 1014.98 1014.82 1014.70 1014.54 1014.40 1014.24 1014.12 1013.96 1013.80 1013.60 1013.46 1013.26 1013.08 1012.92 1012.76 1012.64 1012.54 1012.52 1012.40 1012.26 1012.14 1012.08 1012.02 1011.90 1011.70 1011.48 1011.20 1010.98 1010.86 1010.74 1010.58 1010.42 1010.26 1010.08 1009.90 1009.74
1021.82 1021.68 1021.52 1021.32 1021.14 1020.96 1020.76 1020.54 1020.30 1020.14 1020.02 1019.86 1019.70 1019.46 1019.20 1018.96 1018.80 1018.54 1018.30 1018.08 1017.86 1017.68 1017.52 1017.32 1017.14 1016.90 1016.58 1016.24 1016.02 1015.80 1015.60 1015.42 1015.26 1015.14 1014.98 1014.82 1014.68 1014.52 1014.40 1014.24 1014.12 1013.96 1013.82 1013.64 1013.48 1013.30 1013.12 1012.96 1012.90 1012.82 1012.74 1012.60 1012.48 1012.40 1012.30 1012.18 1012.02 1011.90 1011.70 1011.48 1011.30 1011.18 1011.04 1010.92 1010.76 1010.54 1010.32 1010.12 1009.90
1021.92 1021.76 1021.58 1021.42 1021.24 1021.04 1020.86 1020.68 1020.46 1020.30 1020.18 1020.02 1019.86 1019.60 1019.40 1019.18 1018.96 1018.76 1018.54 1018.32 1018.12 1017.92 1017.74 1017.54 1017.32 1017.04 1016.74 1016.48 1016.26 1016.04 1015.80 1015.58 1015.42 1015.30 1015.14 1014.98 1014.82 1014.68 1014.52 1014.36 1014.20 1014.12 1013.98 1013.86 1013.70 1013.52 1013.30 1013.12 1012.98 1012.90 1012.80 1012.70 1012.58 1012.46 1012.30 1012.20 1012.04 1011.90 1011.74 1011.60 1011.46 1011.30 1011.18 1011.04 1010.96 1010.76 1010.58 1010.40 1010.14
1022.04 1021.90 1021.70 1021.52 1021.32 1021.14 1020.96 1020.74 1020.54 1020.40 1020.26 1020.12 1019.96 1019.74 1019.52 1019.30 1019.12 1018.90 1018.70 1018.48 1018.26 1018.04 1017.90 1017.70 1017.48 1017.24 1016.96 1016.70 1016.48 1016.26 1016.02 1015.76 1015.58 1015.46 1015.32 1015.18 1015.02 1014.86 1014.70 1014.54 1014.36 1014.24 1014.12 1013.98 1013.86 1013.68 1013.48 1013.30 1013.12 1012.98 1012.86 1012.76 1012.64 1012.48 1012.36 1012.24 1012.08 1011.92 1011.76 1011.60 1011.48 1011.32 1011.14 1010.98 1010.92 1010.82 1010.68 1010.48 1010.30
1022.12 1021.96 1021.82 1021.64 1021.46 1021.24 1021.04 1020.86 1020.64 1020.48 1020.32 1020.18 1020.02 1019.80 1019.60 1019.40 1019.18 1018.98 1018.76 1018.54 1018.32 1018.14 1017.96 1017.80 1017.60 1017.40 1017.14 1016.90 1016.68 1016.46 1016.20 1015.96 1015.76 1015.60 1015.48 1015.36 1015.24 1015.04 1014.86 1014.70 1014.52 1014.40 1014.24 1014.12 1013.98 1013.80 1013.64 1013.46 1013.26 1013.12 1012.96 1012.82 1012.70 1012.54 1012.40 1012.24 1012.08 1011.92 1011.76 1011.58 1011.48 1011.32 1011.14 1011.02 1010.90 1010.80 1010.68 1010.52 1010.32
1022.20 1022.04 1021.86 1021.70 1021.52 1021.32 1021.12 1020.92 1020.74 1020.54 1020.40 1020.24 1020.04 1019.86 1019.64 1019.46 1019.24 1019.02 1018.80 1018.58 1018.36 1018.18 1018.02 1017.86 1017.70 1017.52 1017.26 1017.04 1016.80 1016.58 1016.32 1016.08 1015.90 1015.76 1015.64 1015.52 1015.40 1015.20 1015.02 1014.82 1014.64 1014.52 1014.40 1014.24 1014.08 1013.90 1013.74 1013.54 1013.36 1013.20 1013.04 1012.86 1012.74 1012.60 1012.48 1012.32 1012.14 1011.98 1011.80 1011.60 1011.46 1011.32 1011.18 1011.04 1010.92 1010.80 1010.68 1010.48 1010.30
1022.30 1022.12 1021.92 1021.76 1021.58 1021.36 1021.18 1020.98 1020.80 1020.60 1020.42 1020.26 1020.12 1019.92 1019.70 1019.52 1019.30 1019.08 1018.86 1018.68 1018.46 1018.24 1018.08 1017.92 1017.76 1017.58 1017.36 1017.14 1016.92 1016.68 1016.42 1016.20 1016.04 1015.90 1015.76 1015.64 1015.48 1015.32 1015.14 1014.96 1014.76 1014.64 1014.48 1014.36 1014.18 1013.98 1013.80 1013.60 1013.46 1013.30 1013.12 1012.92 1012.76 1012.60 1012.48 1012.32 1012.18 1012.02 1011.86 1011.68 1011.52 1011.36 1011.24 1011.08 1010.92 1010.80 1010.64 1010.48 1010.26
1022.36 1022.18 1021.98 1021.80 1021.60 1021.40 1021.20 1021.04 1020.86 1020.68 1020.48 1020.30 1020.14 1019.96 1019.76 1019.54 1019.36 1019.18 1018.98 1018.74 1018.54 1018.32 1018.18 1018.02 1017.80 1017.60 1017.42 1017.18 1016.98 1016.74 1016.52 1016.30 1016.14 1016.02 1015.86 1015.70 1015.54 1015.40 1015.20 1015.02 1014.86 1014.70 1014.58 1014.42 1014.24 1014.04 1013.86 1013.68 1013.52 1013.32 1013.18 1012.98 1012.80 1012.60 1012.46 1012.30 1012.14 1011.98 1011.86 1011.74 1011.58 1011.42 1011.26 1011.08 1010.92 1010.80 1010.64 1010.46 1010.26
1022.40 1022.20 1022.02 1021.82 1021.64 1021.46 1021.24 1021.08 1020.92 1020.74 1020.54 1020.36 1020.20 1020.02 1019.80 1019.60 1019.46 1019.24 1019.04 1018.80 1018.58 1018.42 1018.26 1018.12 1017.90 1017.68 1017.46 1017.24 1017.04 1016.80 1016.54 1016.36 1016.24 1016.08 1015.92 1015.76 1015.60 1015.46 1015.26 1015.08 1014.92 1014.80 1014.64 1014.46 1014.26 1014.08 1013.90 1013.74 1013.58 1013.40 1013.20 1013.02 1012.80 1012.60 1012.42 1012.24 1012.12 1011.96 1011.82 1011.70 1011.58 1011.42 1011.26 1011.08 1010.90 1010.74 1010.58 1010.42 1010.26
1022.42 1022.24 1022.04 1021.86 1021.68 1021.48 1021.30 1021.12 1020.92 1020.76 1020.58 1020.40 1020.20 1020.02 1019.86 1019.68 1019.48 1019.30 1019.08 1018.90 1018.68 1018.48 1018.32 1018.14 1017.96 1017.74 1017.52 1017.30 1017.12 1016.90 1016.64 1016.42 1016.30 1016.14 1015.98 1015.82 1015.68 1015.52 1015.32 1015.18 1015.02 1014.86 1014.70 1014.54 1014.32 1014.12 1013.90 1013.74 1013.60 1013.42 1013.26 1013.04 1012.82 1012.60 1012.42 1012.26 1012.08 1011.92 1011.80 1011.68 1011.54 1011.42 1011.24 1011.04 1010.86 1010.68 1010.52 1010.36 1010.20
1022.46 1022.26 1022.08 1021.90 1021.74 1021.54 1021.36 1021.14 1020.96 1020.76 1020.54 1020.40 1020.20 1020.02 1019.86 1019.70 1019.52 1019.32 1019.14 1018.92 1018.76 1018.60 1018.40 1018.18 1017.98 1017.80 1017.58 1017.36 1017.20 1016.98 1016.74 1016.52 1016.36 1016.20 1016.08 1015.92 1015.74 1015.54 1015.40 1015.24 1015.08 1014.92 1014.76 1014.60 1014.40 1014.20 1013.98 1013.82 1013.64 1013.46 1013.26 1013.04 1012.86 1012.64 1012.42 1012.26 1012.08 1011.92 1011.80 1011.64 1011.48 1011.36 1011.20 1011.02 1010.82 1010.60 1010.42 1010.24 1010.12
1022.48 1022.26 1022.08 1021.92 1021.74 1021.54 1021.40 1021.18 1020.98 1020.76 1020.58 1020.40 1020.20 1020.02 1019.86 1019.68 1019.52 1019.32 1019.14 1018.96 1018.80 1018.60 1018.42 1018.20 1017.98 1017.76 1017.58 1017.40 1017.24 1017.02 1016.82 1016.60 1016.46 1016.26 1016.08 1015.96 1015.76 1015.58 1015.42 1015.26 1015.12 1014.96 1014.80 1014.60 1014.42 1014.24 1014.04 1013.86 1013.64 1013.42 1013.20 1012.98 1012.76 1012.54 1012.36 1012.20 1012.02 1011.86 1011.74 1011.58 1011.42 1011.26 1011.12 1010.90 1010.74 1010.52 1010.32 1010.18 1009.98
1022.52 1022.26 1022.08 1021.92 1021.74 1021.54 1021.36 1021.18 1020.96 1020.76 1020.58 1020.36 1020.18 1020.02 1019.82 1019.64 1019.48 1019.30 1019.14 1018.92 1018.76 1018.58 1018.40 1018.20 1018.02 1017.76 1017.58 1017.40 1017.20 1017.04 1016.86 1016.68 1016.52 1016.32 1016.14 1015.96 1015.76 1015.60 1015.42 1015.26 1015.12 1014.96 1014.80 1014.60 1014.42 1014.24 1014.04 1013.82 1013.58 1013.32 1013.12 1012.86 1012.60 1012.42 1012.24 1012.04 1011.92 1011.76 1011.60 1011.46 1011.30 1011.14 1010.96 1010.76 1010.54 1010.36 1010.18 1010.02 1009.86
1022.52 1022.30 1022.12 1021.92 1021.74 1021.52 1021.32 1021.14 1020.92 1020.74 1020.54 1020.32 1020.14 1019.96 1019.76 1019.58 1019.46 1019.26 1019.08 1018.90 1018.70 1018.54 1018.36 1018.18 1017.98 1017.76 1017.54 1017.36 1017.18 1017.02 1016.86 1016.70 1016.54 1016.40 1016.20 1015.98 1015.80 1015.64 1015.48 1015.32 1015.14 1014.96 1014.80 1014.60 1014.42 1014.20 1013.98 1013.74 1013.46 1013.20 1012.96 1012.70 1012.48 1012.30 1012.14 1011.96 1011.76 1011.60 1011.46 1011.30 1011.14 1010.96 1010.76 1010.58 1010.40 1010.18 1009.98 1009.82 1009.74
1022.48 1022.32 1022.12 1021.92 1021.70 1021.48 1021.30 1021.08 1020.90 1020.70 1020.48 1020.30 1020.08 1019.90 1019.70 1019.54 1019.40 1019.20 1019.02 1018.82 1018.68 1018.48 1018.30 1018.12 1017.92 1017.74 1017.52 1017.32 1017.14 1016.98 1016.82 1016.70 1016.54 1016.42 1016.24 1016.04 1015.86 1015.68 1015.52 1015.36 1015.14 1014.96 1014.76 1014.58 1014.36 1014.14 1013.86 1013.58 1013.32 1013.08 1012.82 1012.60 1012.40 1012.20 1012.04 1011.86 1011.68 1011.46 1011.26 1011.12 1010.96 1010.76 1010.58 1010.42 1010.20 1010.02 1009.82 1009.68 1009.54
1022.48 1022.30 1022.12 1021.90 1021.68 1021.46 1021.24 1021.02 1020.82 1020.64 1020.46 1020.24 1020.04 1019.86 1019.68 1019.48 1019.32 1019.14 1018.98 1018.80 1018.60 1018.42 1018.26 1018.08 1017.90 1017.68 1017.48 1017.30 1017.12 1016.98 1016.82 1016.64 1016.52 1016.36 1016.24 1016.08 1015.90 1015.70 1015.52 1015.36 1015.18 1014.92 1014.74 1014.54 1014.32 1014.08 1013.76 1013.42 1013.14 1012.92 1012.74 1012.52 1012.32 1012.14 1011.96 1011.80 1011.58 1011.36 1011.18 1010.96 1010.74 1010.54 1010.36 1010.20 1010.02 1009.86 1009.68 1009.54 1009.40
1022.48 1022.30 1022.08 1021.86 1021.64 1021.42 1021.20 1020.98 1020.80 1020.58 1020.40 1020.20 1020.02 1019.82 1019.64 1019.46 1019.26 1019.12 1018.96 1018.76 1018.58 1018.42 1018.26 1018.08 1017.90 1017.68 1017.46 1017.26 1017.12 1016.98 1016.82 1016.64 1016.46 1016.32 1016.18 1016.02 1015.86 1015.68 1015.52 1015.32 1015.14 1014.92 1014.76 1014.58 1014.32 1014.04 1013.70 1013.40 1013.08 1012.82 1012.60 1012.42 1012.26 1012.08 1011.90 1011.74 1011.54 1011.32 1011.08 1010.82 1010.58 1010.32 1010.12 1009.92 1009.80 1009.68 1009.52 1009.36 1009.20
1022.46 1022.26 1022.04 1021.82 1021.64 1021.42 1021.20 1020.98 1020.80 1020.58 1020.40 1020.20 1020.02 1019.80 1019.60 1019.42 1019.26 1019.12 1018.96 1018.76 1018.58 1018.42 1018.26 1018.08 1017.86 1017.64 1017.42 1017.24 1017.08 1016.96 1016.80 1016.68 1016.48 1016.32 1016.14 1015.98 1015.82 1015.68 1015.52 1015.30 1015.12 1014.96 1014.80 1014.60 1014.30 1013.96 1013.64 1013.36 1013.08 1012.82 1012.58 1012.40 1012.18 1011.98 1011.80 1011.64 1011.48 1011.30 1011.04 1010.80 1010.52 1010.24 1009.96 1009.70 1009.52 1009.42 1009.30 1009.14 1008.98
1022.42 1022.26 1022.08 1021.86 1021.68 1021.42 1021.20 1021.02 1020.82 1020.64 1020.46 1020.24 1020.04 1019.82 1019.64 1019.46 1019.30 1019.14 1018.98 1018.80 1018.60 1018.42 1018.24 1018.04 1017.82 1017.58 1017.40 1017.20 1017.08 1016.92 1016.80 1016.68 1016.54 1016.40 1016.20 1016.02 1015.82 1015.68 1015.52 1015.32 1015.14 1014.98 1014.76 1014.54 1014.24 1013.90 1013.58 1013.30 1013.04 1012.80 1012.58 1012.40 1012.14 1011.92 1011.70 1011.48 1011.32 1011.18 1010.98 1010.70 1010.46 1010.18 1009.90 1009.58 1009.32 1009.14 1008.98 1008.90 1008.76
1022.46 1022.30 1022.12 1021.90 1021.70 1021.48 1021.26 1021.08 1020.90 1020.68 1020.48 1020.26 1020.08 1019.86 1019.68 1019.48 1019.32 1019.14 1018.98 1018.80 1018.60 1018.42 1018.20 1018.02 1017.82 1017.60 1017.40 1017.24 1017.12 1016.96 1016.82 1016.68 1016.54 1016.42 1016.26 1016.08 1015.90 1015.70 1015.52 1015.36 1015.18 1015.02 1014.80 1014.48 1014.14 1013.80 1013.52 1013.24 1012.96 1012.70 1012.52 1012.36 1012.12 1011.90 1011.64 1011.42 1011.20 1011.02 1010.82 1010.60 1010.36 1010.12 1009.86 1009.54 1009.26 1008.98 1008.76 1008.58 1008.48
1022.48 1022.32 1022.14 1021.92 1021.76 1021.54 1021.30 1021.12 1020.92 1020.70 1020.48 1020.30 1020.12 1019.90 1019.68 1019.52 1019.32 1019.18 1019.02 1018.80 1018.64 1018.42 1018.20 1018.02 1017.86 1017.64 1017.46 1017.26 1017.18 1017.04 1016.90 1016.74 1016.58 1016.42 1016.26 1016.08 1015.90 1015.74 1015.58 1015.40 1015.20 1015.02 1014.74 1014.42 1014.04 1013.74 1013.42 1013.14 1012.86 1012.64 1012.42 1012.24 1012.02 1011.80 1011.54 1011.36 1011.12 1010.90 1010.70 1010.52 1010.26 1010.02 1009.76 1009.52 1009.24 1008.96 1008.68 1008.42 1008.20
1022.52 1022.36 1022.20 1022.02 1021.80 1021.58 1021.32 1021.14 1020.96 1020.74 1020.52 1020.32 1020.12 1019.90 1019.70 1019.54 1019.40 1019.24 1019.04 1018.86 1018.64 1018.48 1018.30 1018.12 1017.90 1017.68 1017.52 1017.36 1017.18 1017.02 1016.90 1016.76 1016.60 1016.46 1016.26 1016.08 1015.90 1015.74 1015.54 1015.36 1015.14 1014.92 1014.68 1014.36 1013.98 1013.60 1013.30 1013.04 1012.80 1012.58 1012.32 1012.14 1011.96 1011.74 1011.48 1011.30 1011.08 1010.86 1010.60 1010.42 1010.18 1009.92 1009.68 1009.46 1009.18 1008.92 1008.64 1008.36 1008.08
1022.58 1022.42 1022.26 1022.12 1021.86 1021.64 1021.42 1021.20 1020.98 1020.76 1020.54 1020.36 1020.18 1019.98 1019.80 1019.64 1019.46 1019.26 1019.12 1018.92 1018.74 1018.58 1018.40 1018.20 1017.98 1017.80 1017.58 1017.40 1017.20 1017.04 1016.90 1016.76 1016.58 1016.42 1016.24 1016.04 1015.86 1015.68 1015.46 1015.24 1015.08 1014.86 1014.58 1014.24 1013.86 1013.48 1013.18 1012.90 1012.70 1012.48 1012.24 1011.98 1011.80 1011.64 1011.42 1011.24 1011.04 1010.80 1010.54 1010.26 1010.04 1009.80 1009.58 1009.32 1009.08 1008.86 1008.60 1008.30 1008.02
1022.68 1022.52 1022.36 1022.18 1021.96 1021.74 1021.48 1021.26 1021.04 1020.82 1020.60 1020.42 1020.24 1020.04 1019.90 1019.70 1019.54 1019.36 1019.18 1019.02 1018.80 1018.58 1018.40 1018.24 1018.04 1017.86 1017.64 1017.42 1017.20 1017.04 1016.90 1016.70 1016.52 1016.36 1016.20 1015.98 1015.80 1015.58 1015.36 1015.18 1015.02 1014.76 1014.48 1014.08 1013.70 1013.40 1013.08 1012.80 1012.58 1012.32 1012.08 1011.82 1011.68 1011.52 1011.32 1011.14 1010.96 1010.70 1010.46 1010.18 1009.92 1009.68 1009.46 1009.20 1008.96 1008.70 1008.46 1008.20 1007.96
1022.76 1022.60 1022.46 1022.24 1022.02 1021.76 1021.52 1021.30 1021.04 1020.86 1020.68 1020.48 1020.30 1020.12 1019.92 1019.76 1019.58 1019.42 1019.20 1018.98 1018.80 1018.58 1018.40 1018.24 1018.04 1017.86 1017.60 1017.36 1017.18 1016.98 1016.82 1016.64 1016.48 1016.32 1016.14 1015.92 1015.74 1015.48 1015.26 1015.08 1014.90 1014.68 1014.32 1013.96 1013.58 1013.26 1012.98 1012.70 1012.46 1012.20 1011.96 1011.70 1011.52 1011.40 1011.24 1011.04 1010.82 1010.58 1010.30 1010.04 1009.80 1009.54 1009.32 1009.12 1008.82 1008.58 1008.32 1008.08 1007.86
1022.86 1022.68 1022.48 1022.30 1022.02 1021.76 1021.52 1021.32 1021.12 1020.90 1020.70 1020.52 1020.32 1020.14 1019.96 1019.74 1019.54 1019.36 1019.18 1018.96 1018.76 1018.54 1018.40 1018.24 1018.02 1017.80 1017.58 1017.36 1017.14 1016.96 1016.76 1016.60 1016.42 1016.26 1016.08 1015.86 1015.68 1015.42 1015.20 1014.98 1014.76 1014.52 1014.20 1013.80 1013.46 1013.18 1012.90 1012.60 1012.36 1012.12 1011.82 1011.54 1011.42 1011.30 1011.12 1010.90 1010.64 1010.40 1010.12 1009.82 1009.58 1009.36 1009.14 1008.96 1008.70 1008.42 1008.18 1007.92 1007.68
1022.86 1022.68 1022.48 1022.26 1022.02 1021.76 1021.52 1021.32 1021.12 1020.90 1020.70 1020.52 1020.30 1020.12 1019.92 1019.74 1019.52 1019.32 1019.12 1018.90 1018.70 1018.54 1018.42 1018.24 1018.04 1017.82 1017.60 1017.40 1017.14 1016.92 1016.70 1016.52 1016.36 1016.18 1015.98 1015.80 1015.58 1015.36 1015.08 1014.86 1014.64 1014.40 1014.04 1013.70 1013.40 1013.12 1012.82 1012.54 1012.26 1011.98 1011.70 1011.46 1011.30 1011.14 1010.96 1010.74 1010.46 1010.18 1009.90 1009.60 1009.40 1009.14 1008.92 1008.74 1008.52 1008.24 1007.96 1007.70 1007.46
1022.82 1022.68 1022.46 1022.20 1021.98 1021.74 1021.52 1021.30 1021.12 1020.90 1020.70 1020.48 1020.30 1020.08 1019.90 1019.70 1019.52 1019.32 1019.08 1018.82 1018.68 1018.52 1018.40 1018.20 1017.98 1017.80 1017.58 1017.36 1017.14 1016.92 1016.68 1016.46 1016.30 1016.12 1015.92 1015.70 1015.48 1015.24 1014.98 1014.74 1014.48 1014.24 1013.92 1013.60 1013.32 1013.04 1012.74 1012.46 1012.14 1011.86 1011.58 1011.36 1011.20 1011.02 1010.80 1010.54 1010.26 1009.98 1009.70 1009.42 1009.18 1008.92 1008.68 1008.46 1008.20 1007.96 1007.70 1007.48 1007.24
1022.80 1022.60 1022.42 1022.18 1021.96 1021.74 1021.52 1021.30 1021.04 1020.86 1020.68 1020.46 1020.26 1020.02 1019.82 1019.64 1019.46 1019.26 1019.04 1018.80 1018.64 1018.48 1018.32 1018.14 1017.92 1017.70 1017.48 1017.24 1017.02 1016.80 1016.60 1016.46 1016.26 1016.02 1015.82 1015.60 1015.40 1015.14 1014.86 1014.58 1014.32 1014.08 1013.82 1013.54 1013.26 1012.98 1012.68 1012.36 1012.08 1011.76 1011.48 1011.30 1011.12 1010.90 1010.64 1010.36 1010.08 1009.80 1009.52 1009.24 1008.92 1008.68 1008.42 1008.18 1007.92 1007.68 1007.42 1007.20 1006.96
1022.74 1022.58 1022.40 1022.14 1021.92 1021.70 1021.48 1021.26 1021.04 1020.82 1020.60 1020.42 1020.24 1020.02 1019.80 1019.60 1019.40 1019.20 1018.98 1018.76 1018.58 1018.42 1018.26 1018.04 1017.82 1017.60 1017.40 1017.18 1016.92 1016.74 1016.60 1016.46 1016.24 1015.96 1015.70 1015.52 1015.30 1015.04 1014.76 1014.46 1014.20 1013.98 1013.74 1013.48 1013.20 1012.92 1012.60 1012.30 1012.02 1011.74 1011.46 1011.20 1011.02 1010.76 1010.52 1010.24 1009.96 1009.68 1009.36 1009.02 1008.70 1008.46 1008.20 1007.96 1007.64 1007.32 1007.04 1006.82 1006.58
1022.68 1022.48 1022.30 1022.12 1021.90 1021.68 1021.46 1021.24 1021.02 1020.82 1020.60 1020.40 1020.18 1019.98 1019.76 1019.58 1019.32 1019.14 1018.96 1018.76 1018.60 1018.42 1018.20 1017.96 1017.76 1017.54 1017.30 1017.04 1016.82 1016.68 1016.52 1016.32 1016.14 1015.90 1015.68 1015.46 1015.24 1015.02 1014.74 1014.40 1014.14 1013.96 1013.74 1013.46 1013.18 1012.86 1012.58 1012.26 1011.98 1011.70 1011.46 1011.24 1010.98 1010.74 1010.46 1010.18 1009.86 1009.54 1009.24 1008.90 1008.54 1008.24 1007.98 1007.74 1007.42 1007.04 1006.74 1006.42 1006.20
1022.60 1022.42 1022.24 1022.08 1021.86 1021.64 1021.42 1021.24 1021.02 1020.80 1020.58 1020.32 1020.12 1019.92 1019.70 1019.52 1019.32 1019.14 1018.96 1018.82 1018.68 1018.48 1018.26 1017.98 1017.74 1017.48 1017.24 1016.96 1016.74 1016.54 1016.42 1016.24 1016.04 1015.82 1015.60 1015.40 1015.20 1014.96 1014.68 1014.42 1014.14 1013.92 1013.74 1013.48 1013.18 1012.86 1012.54 1012.24 1011.96 1011.68 1011.42 1011.26 1011.04 1010.76 1010.48 1010.14 1009.80 1009.46 1009.12 1008.80 1008.42 1008.04 1007.70 1007.46 1007.18 1006.80 1006.42 1006.08 1005.82
1022.54 1022.36 1022.20 1022.02 1021.82 1021.60 1021.40 1021.20 1021.02 1020.76 1020.54 1020.36 1020.12 1019.86 1019.64 1019.48 1019.30 1019.14 1018.98 1018.80 1018.64 1018.46 1018.24 1018.02 1017.74 1017.48 1017.20 1016.92 1016.70 1016.52 1016.30 1016.14 1015.96 1015.76 1015.58 1015.36 1015.12 1014.86 1014.60 1014.42 1014.18 1013.92 1013.70 1013.46 1013.18 1012.86 1012.54 1012.26 1011.96 1011.70 1011.46 1011.26 1011.04 1010.80 1010.48 1010.18 1009.76 1009.40 1009.04 1008.70 1008.32 1007.92 1007.52 1007.14 1006.86 1006.54 1006.18 1005.80 1005.48
1022.46 1022.30 1022.14 1021.96 1021.80 1021.60 1021.40 1021.18 1020.96 1020.74 1020.54 1020.32 1020.12 1019.86 1019.64 1019.46 1019.30 1019.14 1018.98 1018.76 1018.60 1018.46 1018.24 1017.96 1017.70 1017.46 1017.20 1016.96 1016.74 1016.52 1016.26 1016.04 1015.82 1015.64 1015.48 1015.26 1015.04 1014.80 1014.58 1014.40 1014.18 1013.92 1013.68 1013.42 1013.14 1012.82 1012.54 1012.26 1011.98 1011.70 1011.48 1011.26 1011.02 1010.76 1010.48 1010.18 1009.76 1009.32 1008.96 1008.60 1008.30 1007.92 1007.46 1006.96 1006.58 1006.24 1005.96 1005.60 1005.24
Wind_Speed
12 11 10 10 9 8 8 7 7 6 6 6 6 6 6 6 6 6 6 6 6 6 6 6 7 7 9 11 11 11 11 11 12 12 11 11 10 11 11 10 10 9 9 9 8 7 7 7 6 5 5 5 6 6 6 6 6 7 8 8 8 8 9 10 10 11 11 11 9
13 12 12 11 10 9 8 7 7 7 7 7 7 7 6 6 6 6 6 6 6 6 6 6 7 8 10 11 11 11 12 12 12 12 12 11 11 12 12 11 11 11 10 10 9 7 6 6 6 5 5 5 5 6 6 6 6 7 9 10 9 8 8 10 11 11 12 12 10
13 12 12 11 11 10 9 8 8 9 9 8 8 7 7 6 6 6 6 6 6 6 6 6 7 9 10 11 11 11 11 12 13 12 12 11 12 13 13 12 13 13 12 11 10 9 8 7 6 5 5 5 6 6 7 7 7 7 9 10 8 7 7 8 10 10 10 10 10
13 13 12 12 14 13 11 9 10 10 10 8 8 8 8 7 7 6 6 6 7 7 7 7 7 8 9 10 11 11 11 12 13 13 12 12 12 13 13 13 13 13 13 13 12 12 11 10 6 5 5 5 6 7 7 7 7 7 7 8 7 7 7 8 8 9 9 9 10
13 13 12 12 14 13 12 11 11 11 10 8 8 8 8 7 7 8 7 7 7 7 8 9 8 8 8 10 11 11 11 11 12 12 12 12 13 13 13 14 13 12 12 12 13 13 12 11 7 5 4 4 5 5 6 7 8 8 7 7 7 7 7 8 7 8 8 8 8
13 13 12 12 13 13 12 11 12 11 10 9 9 10 9 8 8 9 9 8 8 9 10 11 10 10 10 10 11 11 11 10 11 11 11 12 12 13 13 14 13 12 11 11 12 12 12 11 7 6 6 6 5 6 7 9 9 9 8 8 8 7 7 7 7 7 8 9 9
12 12 12 12 13 12 12 12 11 10 10 9 11 12 11 10 11 11 11 10 9 9 10 10 11 12 11 10 10 10 10 10 10 11 11 11 12 12 12 13 13 13 12 12 12 12 11 10 8 8 8 9 8 9 11 12 12 11 10 9 8 7 8 8 7 7 8 10 11
10 11 11 12 12 12 12 12 11 10 9 9 10 12 13 12 12 12 12 10 10 10 10 9 12 13 13 11 10 10 10 10 10 10 11 11 11 12 11 12 12 13 13 13 13 12 11 8 7 7 8 7 7 9 11 13 13 12 11 10 9 8 8 8 8 9 10 12 13
9 10 11 11 11 11 11 11 10 10 9 10 11 12 12 12 12 12 11 10 10 10 10 10 12 13 14 13 12 11 10 10 10 10 10 10 11 11 10 10 11 12 12 12 12 12 11 7 6 6 6 6 6 7 8 10 11 11 10 9 9 9 9 9 10 11 11 12 13
10 10 11 11 11 12 11 10 10 10 10 10 11 12 12 12 11 11 10 9 9 10 10 10 12 13 13 13 13 12 11 10 10 10 11 11 11 11 10 9 10 11 11 11 11 11 10 7 7 6 6 6 7 8 8 9 10 10 9 7 8 9 10 10 11 12 12 12 14
11 11 10 10 11 11 11 10 9 9 9 10 11 11 11 11 10 10 9 9 9 10 10 10 11 12 12 11 12 12 12 10 10 10 11 12 12 12 11 10 10 10 10 10 10 9 8 8 8 9 9 8 8 8 9 10 10 10 10 8 9 10 10 10 10 10 10 11 13
10 10 10 10 10 11 10 10 8 8 9 10 10 10 10 10 10 10 10 10 10 10 10 9 10 10 10 9 10 11 11 11 10 10 11 11 12 12 12 11 11 11 11 10 9 8 8 8 9 10 11 11 8 8 9 11 11 11 11 11 11 10 11 11 11 10 9 10 12
10 10 10 10 10 10 10 9 8 8 8 10 10 10 9 9 10 11 10 10 10 10 9 9 9 9 9 9 9 10 10 10 10 10 10 11 11 12 12 11 11 11 11 10 9 8 8 9 10 11 11 11 9 9 10 11 11 11 11 12 12 12 12 12 11 11 11 11 12
9 9 9 9 10 9 9 9 8 8 8 10 10 9 9 9 10 10 10 10 10 10 9 8 8 8 8 9 9 9 10 10 10 10 10 10 11 11 11 11 11 11 11 10 9 9 9 9 10 11 11 12 11 11 10 10 10 10 11 12 12 12 12 12 12 12 12 13 13
9 9 9 9 9 9 8 8 7 7 8 9 9 9 9 8 9 10 10 10 10 9 9 8 8 8 8 9 9 10 10 10 10 10 11 11 11 11 11 11 11 11 11 11 10 10 10 10 10 10 11 12 12 12 11 11 10 10 10 11 12 12 13 13 13 12 12 13 13
9 9 9 9 9 9 8 8 7 7 8 8 9 9 8 8 8 9 10 10 10 9 8 9 9 8 8 9 9 10 10 9 9 10 10 11 11 11 11 11 12 12 12 12 11 11 10 10 10 11 11 12 12 12 12 12 11 11 11 11 12 12 13 13 13 13 12 12 13
9 9 9 9 9 9 9 8 7 7 8 8 9 8 8 8 8 9 9 10 9 9 9 10 9 8 8 8 9 9 9 9 9 9 10 10 11 11 11 11 11 11 12 12 12 11 11 11 11 11 11 12 12 12 12 12 12 12 12 12 13 13 13 14 13 13 13 12 13
9 9 9 9 9 9 9 9 8 8 8 9 8 8 8 8 8 8 9 9 9 9 10 10 9 9 8 8 8 8 8 8 9 9 9 10 10 10 10 11 11 11 11 11 11 11 11 11 11 11 11 11 11 11 11 12 12 12 12 13 13 13 13 14 14 13 12 12 13
9 9 9 9 9 8 8 8 8 8 9 8 8 8 8 8 8 8 8 9 9 9 10 10 9 9 8 8 7 8 8 8 9 9 9 9 9 10 10 10 10 10 10 10 10 10 11 11 11 11 11 11 11 11 11 11 11 11 12 12 13 13 13 14 14 13 12 12 12
9 9 9 9 8 8 8 8 8 8 8 8 8 8 8 8 8 8 9 9 9 9 9 9 9 9 8 8 7 7 7 7 8 9 9 9 9 10 10 10 10 10 10 9 9 10 10 11 11 11 11 11 11 11 11 11 11 11 11 11 12 12 13 13 13 13 12 12 12
9 9 9 8 8 8 8 7 7 7 8 8 8 8 8 8 8 8 9 9 9 9 9 9 9 9 9 8 8 7 7 7 8 8 9 9 9 10 10 10 10 10 9 9 9 10 11 11 11 11 11 11 12 12 12 12 12 12 12 11 12 12 13 13 13 13 12 12 12
9 9 9 8 8 8 8 8 7 7 8 8 8 8 8 8 8 8 9 9 9 9 9 9 9 9 8 8 8 8 7 7 7 8 8 8 9 9 9 9 10 10 10 9 10 10 11 12 12 12 11 11 12 12 13 13 13 13 13 13 14 14 14 14 13 13 12 12 12
9 9 9 8 8 9 9 8 8 8 8 8 8 8 8 8 8 9 9 8 9 9 9 8 8 8 8 8 8 8 8 7 7 8 8 8 9 9 10 9 9 10 10 9 10 10 11 11 11 11 11 11 12 13 13 13 13 14 14 15 15 15 15 14 14 13 13 13 13
10 10 9 8 9 9 9 9 9 9 9 9 9 9 9 9 9 9 9 9 9 9 9 8 8 8 8 8 7 8 8 8 9 9 9 9 10 10 10 9 9 9 9 8 10 12 13 12 11 10 11 11 11 12 12 13 13 13 14 15 16 16 15 15 14 14 14 14 13
10 10 10 10 10 10 10 9 9 9 10 9 9 9 9 9 9 9 9 9 10 10 10 9 9 8 8 7 7 7 8 8 9 10 10 11 11 11 10 8 8 8 8 9 14 18 19 17 14 12 10 10 11 11 12 12 13 13 14 14 15 16 16 16 15 15 14 14 14
10 11 11 11 11 11 11 10 10 10 10 10 10 9 9 9 9 9 9 10 10 10 10 9 9 8 8 7 7 8 8 8 9 9 10 11 12 12 11 9 8 8 8 12 17 20 21 21 20 17 14 11 11 11 11 11 12 13 14 14 15 15 15 16 16 16 15 14 14
10 11 11 11 11 11 11 10 10 10 10 10 10 10 9 9 9 9 10 10 10 10 9 8 8 8 8 7 7 8 8 8 9 9 10 11 11 11 11 10 9 8 10 15 19 21 22 22 22 21 18 13 11 11 11 11 12 13 13 14 14 14 15 16 16 17 17 16 16
11 11 11 11 11 11 11 10 10 10 10 10 10 10 10 10 10 10 10 10 10 9 8 8 7 7 6 6 7 7 8 8 8 9 9 10 11 11 11 10 9 10 13 18 21 22 22 22 22 22 21 17 13 11 11 11 12 12 12 12 13 14 15 15 15 16 17 18 18
11 11 11 12 12 11 11 11 10 10 10 10 10 10 10 10 10 10 10 10 10 9 8 7 7 6 6 6 7 7 8 9 8 9 9 10 11 11 11 11 11 12 15 20 21 22 22 22 22 23 23 21 14 11 9 10 11 11 11 11 12 13 14 14 15 15 16 17 18
11 11 11 12 12 11 11 11 11 10 10 9 10 10 10 10 10 10 10 10 9 8 7 7 7 8 8 8 7 7 8 8 8 9 10 10 11 11 11 12 11 12 15 20 21 22 22 23 23 23 23 23 17 13 10 10 11 11 11 11 12 14 15 15 16 17 17 17 18
11 11 11 11 11 11 11 10 10 10 10 9 9 9 9 9 9 9 9 8 8 8 8 7 8 9 9 8 8 8 9 9 9 9 10 11 12 12 12 11 11 12 15 20 22 23 23 23 23 23 23 24 18 13 10 11 11 11 11 12 13 15 16 16 16 17 18 19 19
10 11 11 11 11 11 10 10 10 10 9 9 9 9 9 9 8 8 8 7 7 7 7 7 8 9 9 9 8 9 10 10 10 10 11 11 12 12 12 11 11 12 15 21 22 23 23 23 23 24 24 24 19 14 12 12 12 12 12 13 15 16 16 15 16 17 19 20 20
10 10 10 10 10 10 10 9 9 9 9 8 8 8 8 8 8 8 7 7 7 7 7 7 8 9 9 10 10 10 10 10 10 11 12 12 12 12 12 11 10 12 17 22 23 23 24 24 24 24 25 25 18 14 12 12 11 11 12 13 14 16 17 18 17 18 19 20 20
9 9 9 9 10 10 9 9 9 9 8 8 8 8 8 8 8 8 8 7 6 6 6 7 7 7 8 8 9 10 10 10 10 11 11 12 11 12 12 11 9 12 18 23 23 24 24 24 24 25 25 24 17 13 12 13 12 12 13 14 15 16 17 17 18 19 19 20 19
9 9 9 9 9 9 9 9 9 8 8 8 8 8 8 8 8 8 8 9 8 7 6 6 7 7 7 7 7 9 10 10 10 10 11 11 11 12 12 12 11 14 20 23 24 24 24 24 25 26 25 21 14 12 12 13 13 14 15 16 17 17 18 18 18 18 18 19 19
9 9 9 9 9 9 9 9 8 8 8 8 9 9 9 8 7 7 8 9 8 8 7 7 7 7 7 7 7 8 8 9 10 10 10 11 11 12 13 13 13 16 20 23 24 24 25 25 25 26 24 18 13 11 12 12 12 14 15 17 17 18 19 18 18 18 18 18 18
8 8 9 9 9 9 9 9 8 8 9 9 9 9 9 8 8 7 8 9 8 8 8 8 8 8 8 8 8 7 7 8 10 10 11 11 11 12 13 13 13 15 18 22 24 25 25 25 26 26 23 16 13 12 12 12 12 13 15 16 17 18 18 17 17 18 18 18 19
8 8 8 9 9 9 9 8 8 9 9 9 8 8 8 8 7 7 8 9 8 8 9 9 8 8 9 9 9 8 8 9 10 10 11 11 11 12 13 14 13 14 16 20 23 25 25 26 26 26 23 16 13 12 12 11 12 13 14 15 16 17 17 16 15 16 17 19 22
8 8 8 8 9 9 9 8 8 9 9 9 9 8 8 8 7 7 8 8 7 8 8 9 9 9 10 10 10 9 9 9 10 10 11 11 12 13 14 14 13 13 15 20 23 25 25 26 26 26 24 18 14 12 11 11 13 14 14 15 15 16 17 16 15 15 16 19 24
8 7 7 8 8 8 8 8 8 8 8 9 9 9 9 8 8 8 8 8 7 7 8 8 9 10 10 12 11 10 10 10 10 10 11 11 12 14 15 13 12 13 15 18 22 24 25 26 26 26 24 17 13 11 11 11 13 14 15 14 15 15 16 16 15 15 16 18 22
7 7 7 7 8 8 8 8 8 8 8 8 9 9 8 8 8 8 8 7 7 7 8 8 9 10 11 12 11 10 10 11 11 11 11 12 12 13 13 12 12 12 13 16 20 23 25 26 26 26 24 18 14 12 11 11 13 14 16 16 15 15 15 16 16 16 16 17 18
Wind_Direction
358 357 355 354 353 348 342 340 344 349 352 348 349 349 348 349 349 351 354 356 357 356 354 355 352 347 343 344 348 349 350 351 350 350 349 350 350 350 348 346 344 340 333 325 318 310 302 295 289 284 278 274 271 269 267 264 262 260 258 256 255 255 254 253 253 252 250 248 248
359 358 356 355 353 348 342 341 343 349 352 348 348 346 345 348 348 349 352 357 356 354 352 352 349 346 345 347 353 355 355 355 353 353 353 353 354 355 354 353 351 348 344 338 331 324 314 305 297 290 284 280 277 274 271 267 264 263 262 259 258 258 257 256 255 253 252 251 249
359 358 356 355 353 349 345 342 342 348 352 349 349 346 344 348 348 347 348 352 352 352 351 351 348 346 347 349 355 358 357 356 356 356 356 356 358 358 358 356 355 353 352 349 345 338 329 317 306 295 287 283 280 278 276 273 269 266 263 261 260 259 258 257 256 255 254 253 250
359 358 356 354 352 349 345 342 341 346 352 350 349 347 346 351 350 346 343 345 349 352 352 350 346 345 347 351 356 357 357 357 358 359 358 359 359 359 359 357 356 356 355 354 350 345 338 330 317 302 290 284 281 279 278 278 274 270 266 263 262 259 257 256 255 255 255 255 251
359 357 355 352 350 348 345 341 342 347 353 350 351 349 347 352 352 346 343 344 350 352 352 350 346 344 345 351 355 356 356 357 359 359 359 359 359 359 358 358 357 356 354 354 351 348 344 338 329 318 308 297 291 288 286 287 283 279 274 271 266 262 258 257 255 254 253 254 252
355 353 352 350 348 346 344 341 344 349 354 351 352 350 349 353 353 349 346 346 348 350 351 351 347 343 343 349 354 355 355 356 358 358 358 358 358 357 357 357 356 355 353 353 351 350 348 344 342 342 343 337 328 326 326 323 314 306 298 290 283 276 271 266 263 260 258 256 254
352 350 349 348 347 345 344 342 345 351 354 351 352 350 349 352 352 349 346 346 348 350 352 353 348 343 341 343 349 353 354 355 355 356 356 357 357 356 356 356 355 355 354 353 351 351 351 351 352 356 357 354 352 355 356 353 346 338 330 321 313 305 299 292 290 284 277 271 266
349 348 348 346 345 345 343 342 345 351 355 352 351 348 347 351 351 349 347 348 350 351 353 352 347 343 340 340 345 348 350 351 353 353 353 353 354 354 355 356 356 356 355 353 351 350 351 352 357 359 357 352 351 353 354 353 350 347 343 339 337 333 329 322 318 311 303 296 289
349 348 348 347 346 346 344 341 345 351 355 352 350 347 347 350 351 350 348 349 349 350 351 350 346 343 341 342 344 345 346 348 350 351 350 349 350 351 353 355 356 355 354 352 350 347 346 347 352 351 348 345 344 342 342 343 343 342 342 340 341 341 340 337 334 330 325 318 312
349 349 348 347 347 346 345 343 346 351 354 352 350 347 347 349 350 349 348 347 346 348 350 348 345 343 343 345 346 345 344 344 349 350 350 349 348 348 349 351 353 353 352 351 348 345 343 343 343 342 341 340 337 334 333 335 335 335 334 333 334 334 333 334 335 334 332 329 326
349 349 348 347 346 346 346 345 346 349 352 351 349 347 346 346 346 346 345 344 345 347 349 346 344 343 343 345 345 343 341 341 347 351 351 350 348 347 346 347 349 349 349 349 347 345 343 342 340 340 339 339 336 335 334 334 332 331 330 327 327 326 326 327 328 328 327 326 324
348 347 347 347 346 347 347 347 346 347 349 349 348 346 345 344 343 343 343 344 346 347 346 344 343 342 341 341 341 340 338 339 346 350 351 350 348 346 345 345 346 347 347 345 345 343 341 340 339 338 338 338 337 335 334 333 332 330 329 328 327 326 325 325 325 324 321 319 317
345 345 345 346 346 347 348 347 345 346 347 348 348 346 344 343 342 342 343 344 345 345 344 342 341 339 338 337 337 336 337 339 346 349 350 348 346 344 343 343 345 345 345 343 342 340 338 337 337 336 335 335 334 332 331 331 330 329 328 328 328 327 325 324 323 321 319 317 314
341 342 343 345 346 347 348 348 346 346 346 347 346 345 343 342 342 342 342 343 342 342 341 339 338 337 335 334 334 335 337 340 345 347 348 346 344 343 342 342 343 344 343 341 338 336 335 334 335 334 332 331 330 328 327 327 327 326 326 326 326 325 323 321 321 320 318 317 314
338 339 341 343 345 346 347 348 346 345 344 345 344 343 343 342 342 341 341 341 340 339 338 337 335 333 332 332 332 334 337 342 345 346 345 344 343 342 341 341 342 342 341 339 336 334 333 333 333 332 331 328 327 326 325 324 323 324 324 324 323 321 320 318 317 317 315 315 313
335 337 340 342 343 345 346 347 345 344 343 343 342 342 342 342 340 340 340 339 338 337 335 334 332 330 330 331 333 335 338 343 344 344 343 342 341 340 340 340 341 341 340 337 335 333 333 334 333 332 330 328 326 325 324 323 323 323 323 322 321 319 317 315 314 313 311 311 311
334 336 338 340 341 342 343 344 343 342 341 339 340 340 341 340 339 338 338 337 335 333 331 330 329 328 328 330 333 335 338 342 343 343 341 340 338 338 338 339 339 338 337 335 333 332 332 333 332 331 329 327 325 323 322 322 322 322 322 321 319 317 315 313 311 309 307 307 307
333 334 336 338 338 338 338 339 339 339 338 337 337 337 337 337 336 335 334 333 331 329 327 326 325 324 324 326 329 333 337 340 340 340 339 337 336 335 336 337 336 335 334 332 330 330 330 330 329 327 325 323 321 320 319 320 320 320 319 318 316 314 312 310 308 306 304 303 304
332 333 334 334 333 332 331 333 334 334 334 333 333 332 332 332 332 331 330 329 327 326 324 322 321 320 321 322 326 331 335 335 336 336 335 334 333 334 335 335 334 333 331 329 327 327 326 324 322 321 319 317 316 316 316 316 316 315 315 313 312 310 308 307 304 302 300 300 303
332 332 331 329 327 326 326 328 328 329 329 328 328 328 327 328 328 328 327 325 324 323 321 320 319 318 318 320 324 329 332 332 333 333 332 332 333 334 335 334 332 331 329 327 325 323 321 318 317 316 315 315 315 316 317 317 315 314 312 310 308 307 305 303 301 299 297 298 301
331 330 327 324 323 323 324 325 325 325 325 324 324 324 324 325 326 326 325 323 322 322 321 319 318 317 317 319 324 328 330 332 332 331 330 330 332 334 334 333 331 329 328 326 324 321 318 316 316 316 316 317 319 320 320 320 318 315 313 311 308 306 305 303 301 299 298 299 301
331 328 325 323 322 323 324 325 325 325 325 324 324 325 325 326 326 325 324 323 324 324 324 322 320 318 317 319 323 326 329 331 331 330 330 329 331 332 332 330 329 328 328 327 323 320 318 316 317 318 320 321 322 323 323 322 319 317 315 312 310 308 306 304 303 301 301 301 301
330 328 325 323 323 325 326 326 327 327 328 327 327 328 328 328 327 327 327 327 328 327 326 323 321 319 318 318 323 327 330 331 331 331 330 330 330 331 331 329 328 328 328 327 322 320 319 318 319 321 323 324 324 324 323 322 320 318 316 314 312 310 308 306 305 304 303 303 302
330 329 328 327 327 327 328 329 330 331 332 331 330 330 329 329 329 330 330 330 329 329 327 325 322 320 319 321 325 329 331 333 333 332 332 332 333 332 331 328 328 327 327 324 322 322 323 323 322 323 324 325 324 323 322 320 319 317 315 314 313 311 309 307 306 305 305 304 303
331 330 329 329 329 329 329 331 333 333 333 331 330 330 330 331 332 332 332 331 330 329 327 325 323 322 323 326 328 330 332 333 333 333 332 333 333 333 332 329 328 327 325 320 321 322 324 325 325 325 325 325 323 321 319 318 317 316 314 313 312 311 309 308 307 306 306 305 304
332 331 331 330 330 330 330 330 331 331 331 330 330 330 331 332 333 333 332 331 330 329 328 327 326 326 328 329 329 331 333 335 334 333 331 331 331 331 331 329 328 325 322 319 321 322 324 325 326 327 326 324 323 321 319 317 317 315 314 312 311 310 309 309 308 308 308 306 305
333 332 331 329 329 328 328 327 328 329 329 329 330 330 331 332 333 333 332 331 329 328 328 328 327 328 328 327 329 331 333 334 332 330 329 328 328 328 328 327 326 323 319 319 320 322 323 326 327 328 328 326 323 321 319 318 317 316 315 313 311 309 308 308 308 309 309 308 306
332 330 329 328 328 326 325 325 327 328 329 329 329 329 330 331 332 332 331 329 328 328 328 329 328 326 326 326 327 329 330 331 329 327 326 326 325 325 325 324 323 320 319 319 321 322 324 326 328 329 329 328 325 321 319 317 317 317 315 313 310 309 308 308 308 308 308 308 307
330 329 328 327 326 325 324 325 326 327 327 327 327 328 329 331 331 330 329 328 328 328 328 328 327 325 324 324 324 326 327 328 325 324 324 324 324 324 323 322 320 318 318 319 321 323 326 328 329 330 330 330 327 323 321 320 318 316 314 311 309 309 308 307 307 307 307 307 307
329 327 326 325 324 323 323 324 324 325 325 325 326 327 328 329 328 328 327 326 325 324 324 323 323 324 323 322 324 327 327 326 324 324 324 324 324 323 322 320 318 316 317 319 322 325 327 329 330 330 330 330 328 325 321 320 317 314 311 308 307 307 306 306 306 306 306 306 305
326 324 323 321 320 320 320 320 321 322 323 323 324 324 325 326 325 324 323 321 318 317 318 320 320 319 319 320 323 326 327 325 325 326 325 324 323 322 320 318 316 315 316 321 324 327 329 330 331 330 330 330 329 327 323 319 315 311 308 306 306 306 306 305 305 305 305 305 304
320 319 318 317 316 316 316 316 318 319 319 320 320 321 322 322 320 319 317 314 314 317 320 322 320 319 318 322 325 327 328 327 327 328 327 325 323 320 319 318 317 316 319 323 327 329 331 331 331 331 330 331 329 326 322 316 312 308 305 303 304 304 305 305 305 304 304 304 303
315 314 313 313 312 312 313 315 316 316 317 317 318 319 320 319 318 318 316 316 318 320 322 323 321 319 320 323 326 327 327 327 327 326 325 323 321 319 318 319 317 318 321 326 329 330 331 331 331 331 330 331 329 325 320 314 310 307 305 304 304 305 305 304 303 303 303 302 301
311 310 310 310 310 311 313 314 315 316 317 317 318 319 320 321 321 321 321 322 323 323 322 320 317 315 315 318 322 324 325 326 326 325 323 321 319 319 319 320 318 321 325 328 330 331 331 331 331 331 331 331 329 324 318 314 310 308 306 305 305 305 305 305 303 302 301 300 299
308 309 309 310 311 312 313 315 316 317 318 320 321 322 323 323 323 323 323 324 326 325 322 318 314 311 310 312 316 321 323 324 323 322 320 319 319 319 319 320 317 322 326 329 330 331 331 331 331 331 331 331 327 322 317 314 311 310 309 308 307 307 307 306 304 302 301 300 298
307 308 309 311 312 314 315 316 317 319 321 322 324 325 326 326 325 323 323 326 327 326 323 319 317 315 314 316 319 322 323 322 321 319 319 320 320 320 320 320 319 323 327 329 330 331 331 331 331 331 331 330 325 321 318 315 313 311 311 310 309 308 308 307 305 303 301 299 297
308 309 311 313 315 316 317 318 319 321 323 325 327 327 328 327 326 326 327 330 329 328 325 322 320 318 317 318 320 321 321 320 319 319 319 321 321 321 320 320 321 324 326 329 330 330 331 331 331 331 331 329 325 321 319 317 314 313 312 311 310 309 309 307 306 303 301 299 297
307 309 312 314 316 318 319 320 321 323 325 326 327 328 328 327 328 329 331 334 331 328 326 323 322 319 318 318 319 320 320 320 319 319 319 321 321 321 321 321 321 323 325 327 329 329 330 330 330 331 331 328 325 322 319 317 315 313 312 312 310 310 309 307 306 303 301 299 299
307 309 312 314 316 318 319 320 322 323 325 327 328 329 329 331 331 332 332 332 329 326 323 321 320 318 318 322 323 324 323 321 320 320 320 319 319 320 321 321 320 320 322 325 327 328 329 329 329 330 330 328 325 322 318 316 314 312 311 311 310 310 309 307 306 303 301 300 300
305 308 312 314 316 317 318 318 320 322 325 328 329 330 331 332 331 331 330 329 326 324 321 318 317 318 321 326 326 325 323 322 321 321 320 318 317 319 320 319 317 317 319 323 325 327 327 328 328 328 329 327 325 322 318 315 313 312 311 311 311 310 309 308 306 304 302 301 301
306 310 313 315 316 316 316 316 318 321 325 328 329 329 329 330 330 329 329 327 326 324 321 318 318 320 323 328 327 325 323 322 322 321 319 318 316 317 318 316 314 314 316 320 324 325 326 327 326 327 328 327 325 322 318 314 312 312 312 311 310 309 308 308 307 305 303 303 302